Wind_Speed
29 29 28 26 24 23 22 21 20 20 19 19 18 17 16 17 19 21 22 24 26 29 31 33 35 36 36 37 38 39 40 41 42 43 42 40 38 37 37 37 37 36
30 31 30 29 27 24 23 23 22 22 21 20 19 19 20 20 21 22 22 24 26 28 30 32 34 35 37 37 38 39 39 40 42 43 41 40 38 38 37 37 37 36
31 32 32 31 29 26 25 25 24 24 23 22 21 21 22 23 24 24 24 24 25 27 30 32 34 35 37 37 38 38 39 40 41 42 41 40 39 38 37 37 37 37
31 31 31 31 30 28 27 27 26 25 26 25 23 23 23 24 25 26 25 25 25 27 29 32 34 36 37 38 38 38 38 39 40 41 41 40 39 38 38 37 37 36
31 32 32 32 32 31 30 29 28 27 28 28 27 26 25 25 26 25 25 25 25 26 28 31 34 36 38 38 38 38 38 39 40 41 41 40 39 39 38 37 37 36
33 33 33 33 34 34 34 32 30 30 30 31 32 31 29 28 27 25 25 25 25 26 28 29 32 35 37 39 39 39 39 39 40 41 41 41 40 39 38 38 37 36
35 35 35 36 37 37 36 34 32 32 32 33 35 35 33 31 29 27 27 27 27 27 28 30 32 34 36 38 39 39 39 40 40 41 41 41 40 40 39 39 38 36
37 38 38 39 40 39 37 35 34 34 35 36 38 38 37 34 31 30 30 30 30 30 30 31 32 34 35 36 38 39 40 40 40 41 41 41 41 40 40 39 38 37
39 41 41 41 42 41 39 37 36 37 37 38 39 40 41 38 35 33 33 33 33 33 32 32 32 34 35 36 37 39 40 41 41 41 41 41 41 41 40 40 38 37
42 43 42 42 42 42 41 39 38 38 38 39 40 42 44 43 39 37 36 37 37 36 35 33 33 34 34 35 37 39 41 42 42 42 42 41 41 40 40 39 39 38
42 43 43 43 42 42 43 42 40 40 39 40 41 43 46 47 45 41 39 40 40 39 37 35 34 34 36 37 38 40 41 42 43 43 43 42 41 41 40 40 40 40
43 44 44 45 44 43 44 44 44 43 42 43 44 46 47 49 49 45 42 42 43 43 41 38 36 37 38 39 40 41 42 42 43 43 43 43 42 41 41 41 41 41
46 45 45 47 47 46 45 45 46 46 46 47 48 48 49 49 50 48 45 44 45 46 45 41 39 40 41 42 42 42 42 42 43 43 44 44 43 42 42 42 42 42
49 48 47 48 49 49 47 46 48 49 49 49 48 48 49 48 49 49 48 47 46 47 46 43 42 43 44 44 43 42 42 42 43 44 45 45 44 43 42 42 42 42
50 48 47 48 50 50 48 47 49 50 50 49 47 47 47 48 48 49 49 49 48 46 45 45 45 45 45 44 43 43 43 44 44 44 45 45 44 44 44 43 43 43
45 44 44 45 48 50 50 50 51 51 50 48 45 45 46 47 48 48 49 48 47 46 45 45 46 46 45 44 44 44 45 45 45 44 45 46 45 45 45 45 44 44
42 42 42 43 45 47 50 51 51 49 48 46 44 44 44 45 46 47 47 46 46 45 46 46 46 45 45 45 45 45 45 45 45 45 46 47 47 47 47 46 46 46
43 43 43 43 44 46 48 49 48 47 46 45 44 43 43 43 44 45 45 44 44 45 45 46 45 45 45 46 45 45 45 46 46 46 47 48 48 48 48 48 48 48
45 45 44 44 45 45 45 46 45 44 43 42 41 40 40 41 41 42 42 42 42 43 43 43 44 44 45 45 45 45 45 46 47 47 48 48 48 48 48 48 48 49
47 46 45 45 46 44 44 44 43 42 41 39 39 39 39 40 40 40 41 40 40 40 41 41 43 43 44 44 44 45 45 46 47 48 48 48 48 48 48 48 48 48
46 45 45 46 45 43 43 42 40 39 38 38 38 39 39 40 41 41 40 38 38 38 38 40 41 41 42 42 43 44 45 46 48 48 48 48 47 47 47 47 47 48
43 44 46 45 43 42 41 39 37 36 36 35 36 37 39 41 41 40 38 36 35 35 36 37 38 39 41 41 42 43 44 45 47 48 48 48 48 47 46 46 46 47
40 42 43 43 41 40 38 36 36 36 35 34 34 35 37 39 39 38 36 35 35 35 35 36 36 38 39 40 42 44 43 44 46 47 48 48 48 47 45 45 45 45
38 38 40 41 39 38 36 36 36 36 35 34 34 35 36 37 37 36 36 35 35 35 34 34 35 36 38 40 42 43 43 43 45 47 48 49 48 46 45 44 44 43
38 38 39 39 38 37 36 36 36 35 34 35 35 36 36 36 36 36 36 35 34 33 32 32 34 36 37 39 41 42 43 44 46 47 48 48 47 46 44 43 42 41
38 39 40 39 39 38 38 37 37 36 35 36 36 35 36 36 36 36 35 33 32 31 31 32 34 35 37 38 41 42 43 45 47 48 47 47 46 45 44 43 41 39
Wind_Direction
253 252 254 255 256 258 263 269 274 278 281 285 289 291 290 284 280 279 279 278 277 276 275 275 274 275 275 275 275 275 275 275 275 275 276 276 276 276 277 278 279 281
259 258 258 259 261 265 271 274 276 278 280 282 285 289 290 290 287 284 280 278 279 279 278 277 276 276 275 275 275 275 275 274 274 275 276 276 276 276 277 278 280 281
259 260 262 263 265 268 273 276 278 280 280 280 282 286 288 290 290 288 284 281 281 281 281 280 279 277 276 276 275 275 275 275 275 276 277 277 277 278 278 280 281 281
261 262 265 265 264 267 273 275 279 282 281 279 280 283 285 286 287 287 286 284 282 282 284 283 281 280 279 278 278 278 278 278 278 279 280 280 280 280 280 281 281 282
263 263 264 265 264 267 271 274 278 280 279 278 278 279 281 283 283 283 284 284 282 281 282 283 282 281 281 281 281 282 282 283 282 282 282 282 282 282 282 282 282 282
263 263 264 266 266 266 270 274 277 278 277 277 276 276 277 278 279 279 279 279 278 277 277 280 282 282 281 281 282 283 284 285 285 284 284 284 283 283 283 282 281 281
263 264 264 265 265 265 268 272 275 276 278 278 276 274 273 275 276 276 276 275 274 273 273 274 278 280 281 281 282 284 284 285 286 285 285 284 284 283 282 281 281 280
263 263 263 264 264 263 266 270 273 276 278 278 275 272 271 271 273 273 273 273 272 272 271 271 273 277 279 280 282 282 283 283 284 284 283 283 283 283 282 281 280 279
258 260 261 262 263 262 263 268 271 273 275 275 273 270 269 268 269 271 271 271 271 270 270 269 271 273 276 279 280 280 281 281 281 281 281 282 282 282 281 280 279 277
253 255 257 259 261 262 262 263 267 269 270 271 270 268 267 266 266 267 268 269 269 269 270 270 270 272 274 276 278 279 279 279 279 279 279 280 280 280 279 278 277 276
251 253 255 257 259 260 260 260 262 264 265 266 267 266 264 263 263 264 266 267 267 268 269 269 269 270 271 273 275 277 278 279 278 277 277 279 279 279 278 276 275 274
253 254 254 254 254 257 257 256 258 261 262 263 265 263 260 258 258 260 263 265 265 265 266 267 268 269 270 271 272 274 277 278 278 277 276 277 277 276 275 273 272 273
255 258 256 252 250 252 252 251 255 258 260 263 264 262 258 254 253 255 260 262 262 262 263 265 267 268 269 269 270 273 276 277 277 275 275 275 274 273 272 270 270 272
257 259 257 252 249 249 247 247 253 257 261 264 264 260 258 255 252 252 255 259 259 259 260 262 264 265 266 267 270 272 274 274 274 273 272 272 272 271 269 268 269 271
258 258 255 251 249 249 247 248 254 258 262 263 261 258 257 256 253 251 253 255 256 257 259 260 261 263 264 267 269 270 270 270 271 271 271 271 271 270 268 268 268 269
256 255 255 254 252 251 250 252 255 259 261 260 258 257 256 255 254 253 253 254 256 257 259 259 259 260 262 265 267 267 267 268 270 271 271 271 271 270 268 267 267 268
254 255 258 258 256 253 252 253 255 257 257 257 257 257 256 256 256 255 255 255 256 256 257 256 256 257 259 261 263 265 266 267 269 271 272 272 272 271 269 268 267 267
254 255 256 257 256 254 252 253 253 254 255 256 256 256 256 256 255 255 254 254 253 253 253 253 254 255 257 260 262 264 266 267 269 270 271 272 272 271 271 269 268 268
252 253 253 254 255 254 251 250 250 251 253 253 253 252 252 251 251 251 250 249 249 250 251 252 253 255 257 259 261 262 263 265 266 268 269 270 270 271 270 270 269 269
251 251 250 251 252 251 248 247 247 248 248 248 248 247 247 247 248 248 248 248 249 250 250 251 251 253 255 256 258 259 261 262 264 265 267 268 269 269 269 269 269 269
253 250 247 248 250 248 245 244 244 245 246 247 246 246 246 246 247 248 248 248 248 248 248 249 249 251 253 254 255 257 259 261 262 263 266 267 267 268 269 269 270 270
256 251 246 245 246 244 243 242 242 243 245 246 246 246 246 246 246 247 247 247 247 246 246 247 248 249 251 252 253 255 258 260 261 263 265 266 267 268 270 271 272 271
257 250 244 242 241 241 240 240 241 244 244 245 245 245 246 246 246 246 245 244 243 243 243 245 246 248 250 251 252 254 258 261 262 263 265 266 267 269 271 272 272 271
252 245 240 239 239 238 239 240 242 246 247 247 245 244 243 243 242 241 240 239 239 240 241 243 244 245 247 249 250 254 258 260 262 264 265 267 268 270 271 271 271 269
242 238 235 235 235 236 237 240 242 246 248 248 247 245 243 241 239 238 238 238 240 242 243 244 245 245 247 247 250 253 256 258 261 263 265 267 269 270 271 271 269 266
235 231 229 229 231 233 236 239 243 247 247 246 246 246 244 241 240 239 240 243 245 247 248 248 249 249 249 249 250 254 256 258 259 262 265 267 269 270 270 269 266 263
Height
3042 3042 3043 3043 3043 3043 3043 3042 3042 3042 3043 3043 3043 3044 3044 3044 3044 3044 3044 3044 3044 3043 3042 3041 3040 3039 3039 3038 3038 3037 3037 3036 3035 3035 3036 3036 3036 3036 3036 3035 3034 3034
3039 3040 3040 3040 3040 3040 3039 3039 3038 3038 3038 3038 3038 3039 3039 3039 3039 3039 3039 3039 3039 3039 3038 3037 3036 3036 3035 3034 3034 3033 3032 3032 3031 3031 3032 3032 3032 3032 3031 3031 3030 3029
3035 3035 3036 3036 3037 3036 3035 3034 3034 3034 3034 3033 3033 3034 3034 3034 3034 3034 3034 3033 3034 3034 3033 3033 3032 3031 3031 3030 3029 3028 3027 3027 3027 3027 3028 3028 3028 3027 3027 3027 3026 3025
3030 3030 3031 3032 3032 3031 3030 3029 3029 3029 3029 3028 3028 3028 3029 3029 3029 3029 3028 3028 3028 3028 3028 3028 3027 3027 3026 3026 3025 3024 3023 3022 3022 3022 3023 3023 3023 3023 3022 3022 3021 3020
3025 3025 3026 3026 3026 3026 3025 3025 3025 3025 3024 3024 3023 3023 3024 3024 3024 3024 3023 3023 3023 3023 3023 3023 3022 3022 3022 3021 3020 3019 3018 3017 3017 3018 3018 3019 3018 3018 3018 3017 3017 3016
3019 3020 3020 3020 3020 3020 3020 3020 3020 3020 3019 3019 3019 3019 3019 3019 3019 3019 3018 3018 3018 3018 3018 3018 3018 3017 3017 3017 3016 3015 3014 3013 3013 3013 3014 3014 3014 3013 3013 3013 3012 3011
3014 3014 3014 3014 3015 3014 3015 3015 3015 3014 3014 3014 3014 3014 3014 3014 3015 3014 3014 3013 3013 3013 3013 3013 3013 3013 3012 3012 3012 3011 3010 3009 3008 3009 3009 3009 3009 3009 3008 3008 3007 3007
3009 3008 3008 3008 3008 3009 3009 3010 3009 3009 3009 3009 3009 3010 3010 3010 3009 3009 3009 3008 3008 3007 3007 3007 3007 3007 3007 3008 3008 3007 3006 3005 3004 3004 3004 3004 3004 3004 3004 3003 3002 3002
3002 3001 3001 3001 3002 3002 3003 3004 3004 3004 3003 3004 3004 3005 3004 3004 3004 3004 3003 3003 3003 3002 3002 3002 3002 3002 3002 3003 3003 3002 3001 3000 2999 2999 2999 3000 3000 2999 2999 2998 2998 2997
2994 2994 2994 2995 2995 2997 2997 2998 2998 2998 2998 2998 2999 2999 2998 2998 2998 2998 2998 2997 2997 2997 2997 2996 2996 2996 2997 2997 2998 2997 2996 2995 2995 2994 2994 2994 2995 2994 2994 2993 2993 2992
2988 2988 2988 2989 2990 2991 2991 2992 2991 2991 2991 2992 2992 2992 2992 2992 2992 2991 2992 2992 2992 2992 2991 2991 2991 2991 2992 2992 2992 2992 2991 2991 2990 2990 2990 2989 2989 2989 2989 2988 2987 2987
2981 2982 2982 2983 2984 2984 2985 2986 2984 2984 2985 2985 2985 2985 2985 2985 2985 2985 2986 2986 2986 2986 2985 2985 2985 2986 2986 2986 2986 2986 2986 2986 2986 2986 2985 2984 2984 2983 2983 2983 2982 2981
2974 2975 2976 2977 2977 2977 2977 2977 2977 2977 2977 2978 2978 2978 2977 2977 2978 2979 2980 2980 2980 2979 2980 2980 2980 2980 2980 2980 2980 2981 2981 2981 2981 2981 2980 2979 2978 2978 2978 2977 2977 2976
2968 2969 2969 2969 2969 2969 2969 2969 2969 2970 2970 2971 2971 2970 2970 2970 2971 2972 2973 2973 2973 2973 2973 2974 2974 2974 2974 2975 2975 2976 2976 2976 2976 2975 2975 2974 2973 2973 2972 2972 2971 2970
2962 2962 2961 2962 2961 2961 2961 2961 2962 2962 2963 2963 2963 2962 2963 2963 2964 2965 2965 2966 2966 2966 2967 2968 2968 2968 2969 2970 2970 2970 2970 2970 2970 2970 2969 2968 2968 2967 2967 2966 2966 2965
2955 2955 2955 2955 2955 2955 2956 2956 2955 2956 2956 2955 2955 2955 2955 2956 2957 2957 2958 2958 2959 2960 2961 2961 2962 2963 2964 2964 2964 2964 2964 2964 2964 2964 2963 2963 2962 2962 2961 2961 2961 2960
2948 2949 2949 2949 2949 2950 2950 2950 2950 2950 2949 2948 2948 2948 2948 2949 2949 2950 2950 2951 2952 2953 2954 2954 2955 2956 2957 2957 2957 2958 2958 2959 2959 2959 2958 2957 2957 2957 2956 2956 2955 2955
2941 2942 2942 2942 2943 2943 2944 2944 2944 2943 2943 2942 2942 2942 2942 2942 2942 2942 2943 2944 2944 2946 2947 2948 2949 2950 2951 2951 2952 2952 2953 2953 2953 2953 2952 2952 2952 2951 2951 2951 2950 2950
2935 2935 2935 2935 2936 2936 2937 2937 2937 2937 2937 2937 2936 2936 2935 2935 2935 2935 2936 2937 2938 2939 2940 2942 2943 2944 2945 2945 2946 2946 2946 2947 2947 2947 2947 2947 2946 2946 2946 2946 2945 2945
2928 2928 2929 2929 2929 2930 2930 2930 2930 2931 2931 2931 2931 2930 2930 2929 2929 2930 2930 2931 2932 2933 2934 2936 2937 2937 2938 2938 2939 2939 2940 2940 2940 2940 2941 2941 2941 2941 2941 2941 2940 2940
2922 2922 2922 2923 2923 2923 2923 2924 2924 2925 2925 2925 2925 2924 2924 2924 2924 2924 2924 2925 2926 2927 2928 2929 2930 2930 2930 2931 2932 2933 2933 2933 2934 2934 2935 2935 2935 2935 2936 2936 2935 2935
2915 2915 2915 2916 2917 2917 2917 2918 2918 2918 2919 2919 2919 2918 2918 2917 2917 2918 2918 2919 2920 2920 2921 2922 2923 2923 2923 2924 2925 2926 2926 2927 2927 2928 2929 2929 2930 2930 2930 2931 2930 2929
2908 2908 2909 2910 2910 2911 2912 2912 2912 2912 2913 2913 2912 2912 2912 2911 2912 2912 2913 2913 2914 2914 2915 2915 2915 2916 2916 2917 2918 2918 2919 2921 2922 2923 2923 2923 2924 2924 2925 2925 2924 2923
2901 2902 2903 2904 2905 2906 2906 2906 2906 2906 2906 2907 2907 2906 2906 2906 2906 2906 2906 2907 2907 2908 2908 2908 2908 2909 2909 2910 2912 2912 2913 2915 2916 2916 2917 2917 2918 2918 2919 2918 2917 2917
2894 2895 2896 2897 2898 2899 2899 2899 2900 2900 2900 2901 2900 2900 2900 2900 2900 2900 2900 2901 2901 2901 2901 2901 2901 2902 2903 2904 2905 2906 2907 2908 2909 2910 2910 2911 2911 2911 2911 2911 2911 2911
2887 2888 2889 2890 2891 2892 2892 2893 2893 2894 2895 2895 2895 2895 2895 2895 2895 2895 2895 2895 2896 2895 2895 2895 2895 2896 2897 2898 2899 2900 2901 2902 2903 2903 2904 2904 2905 2905 2904 2904 2905 2905